Regional Weather Roundup
Issued by NWS Newport/Morehead, NC

Current Version | Previous Version | Graphics & Text | Print | Product List | Glossary On
Versions: 1 2 3 4 5 6 7 8 9 10 11 12 13 14 15 16 17 18 19 20 21 22 23 24 25 26 27 28 29 30 31 32 33 34 35 36 37 38 39 40 41 42 43 44 45 46 47 48 49 50
000 ASUS42 KMHX 280125 RWRMHX WEATHER ROUNDUP FOR EASTERN NORTH CAROLINA NATIONAL WEATHER SERVICE NEWPORT/MOREHEAD CITY NC 900 PM EDT THU APR 27 2017 NOTE: "FAIR" INDICATES FEW OR NO CLOUDS BELOW 12,000 FEET WITH NO SIGNIFICANT WEATHER AND/OR OBSTRUCTIONS TO VISIBILITY NCZ015>017-031-032-045>047-102-103-280200- NORTH COAST CITY SKY/WX TMP DP RH WIND PRES REMARKS EDENTON CLEAR 74 64 70 S10 29.91R ELIZABETH CITY CLEAR 73 64 73 S12 29.90R KITTY HAWK CLEAR 72 65 79 S6 29.91R MANTEO CLEAR 71 67 85 SW15 29.93R $$ NCZ045>047-081-094-103-104-280200- CENTRAL COAST CITY SKY/WX TMP DP RH WIND PRES REMARKS FRISCO CLEAR 72 65 78 SW9 29.95R HAZE $$ NCZ095-097-098-100-101-280200- SOUTHERN COAST CITY SKY/WX TMP DP RH WIND PRES REMARKS BEAUFORT PTCLDY 72 69 90 S9 29.94R CEDAR ISLAND NOT AVBL JACKSONVILLE PTCLDY 72 65 78 SW5 29.94R PINEY ISLAND PTCLDY N/A N/A N/A S7 29.94R WILMINGTON MOCLDY 74 68 81 S7 29.94R $$ NCZ011>013-027>030-043-044-078>080-089-090>093-098-280200- COASTAL PLAIN CITY SKY/WX TMP DP RH WIND PRES REMARKS AHOSKIE N/A 70 62 76 S5 29.90R CLINTON CLOUDY 74 66 77 S6 29.92S ELIZABETHTOWN CLOUDY 74 67 78 S7 29.93R GOLDSBORO PTCLDY 75 67 75 S6 29.89R GREENVILLE PTCLDY 77 63 61 SW9G18 29.93R HAVELOCK CLEAR 72 61 68 S8 29.94R KENANSVILLE CLOUDY 73 64 73 S5 29.92R KINSTON PTCLDY 75 63 64 S8 29.93R NEW BERN PTCLDY 73 64 73 SW10 29.94R RICHLANDS CLOUDY 71 64 78 S6 29.94R ROCKY MOUNT CLOUDY 73 63 70 S5 29.89R WASHINGTON PTCLDY 73 64 72 S7 29.93R WHITEVILLE CLOUDY 73 69 85 S5 29.93R $$ AMZ130-135-150-152-154-156-158-170-250-252-270-ANZ085-086-088-633-658-670-280200- MARINE OBSERVATIONS STATION/POSITION TIME TEMP WIND PRES WAVE SWELL AIR SEA DIR/SP/G HT/PER HT/PER (UTC) (F) (DEG/KT/KT) (MB) (FT/S) (FT/S) CHESAPEAKE LIGHT NOT AVBL 64 E VA BEACH 0050 62 57 200/ 12/ 14 1013.6 4/ 8 3/ 8 DUCK 0100 73 59 190/ 13/ 16 N/A 2 E DUCK 0100 62 N/A 4/11 2/11 OREGON INLET 0100 73 72 190/ 16/ 19 N/A 13E OREGON INLT 0048 64 N/A 5/12 3/12 HATTERAS CG 0100 73 71 210/ 10/ 13 N/A DIAMOND BUOY 0050 77 77 210/ 17/ 21 1014.0 5/ 9 3/ 9 CAPE LOOKOUT 0000 73 200/ 8/ 11 1013.5 BEAUFORT LAB 0100 72 69 200/ 8/ 10 N/A 30 SE NEW RVR IN 0108 74 200/ 12/ 17 1014.0 30 SE NEW RVR IN 0113 72 N/A 5/ 8 2/13 27 SE WRIGHTSVLE 0108 74 72 180/ 14/ 17 1012.9 5 SE WRIGHTSVLE 0108 73 71 190/ 8/ 14 1013.5 225 S CAPE HAT 2350 75 75 170/ 14/ 16 1017.7 4/ 6 3/ 8 41 SE CHARLESTON 0050 75 74 180/ 14/ 16 1012.8 4/ 9 3/ 9 $$

USA.gov is the U.S. government's official web portal to all federal, state and local government web resources and services.